Wetterdaten: Mittwoch, 10.06.2015
Datum Zeit Auen-Temp. Temp gefhlt Luftfeuchte Luftdruck Regen Wind Richtung Richtung Taupunkt Windben
10.06.2015 00:00 10,6 C 10,6 C 93 % 1023,7 hPa 0,0 mm 5,2 km/h (1 Bft) NO 45 9,5 C 10,9 km/h (2 Bft)
10.06.2015 00:05 10,6 C 10,6 C 93 % 1023,7 hPa 0,0 mm 5,7 km/h (1 Bft) O-NO 67 9,5 C 9,6 km/h (2 Bft)
10.06.2015 00:10 10,6 C 10,6 C 93 % 1023,7 hPa 0,0 mm 7,0 km/h (2 Bft) NO 45 9,5 C 17,6 km/h (3 Bft)
10.06.2015 00:15 10,6 C 10,6 C 93 % 1023,6 hPa 0,0 mm 7,0 km/h (2 Bft) O-NO 67 9,5 C 12,2 km/h (2 Bft)
10.06.2015 00:20 10,6 C 10,6 C 93 % 1023,6 hPa 0,0 mm 7,0 km/h (2 Bft) N-NO 22 9,5 C 8,8 km/h (2 Bft)
10.06.2015 00:25 10,6 C 10,6 C 93 % 1023,6 hPa 0,0 mm 6,2 km/h (2 Bft) N-NO 22 9,5 C 6,2 km/h (2 Bft)
10.06.2015 00:30 10,6 C 10,6 C 93 % 1023,6 hPa 0,0 mm 5,7 km/h (1 Bft) NO 45 9,5 C 3,6 km/h (1 Bft)
10.06.2015 00:35 10,6 C 10,6 C 93 % 1023,2 hPa 0,0 mm 5,7 km/h (1 Bft) NO 45 9,5 C 16,6 km/h (3 Bft)
10.06.2015 00:40 10,6 C 10,6 C 93 % 1023,2 hPa 0,0 mm 6,0 km/h (2 Bft) NO 45 9,5 C 8,5 km/h (2 Bft)
10.06.2015 00:45 10,6 C 10,6 C 93 % 1023,2 hPa 0,0 mm 6,7 km/h (2 Bft) NO 45 9,5 C 7,5 km/h (2 Bft)
10.06.2015 00:50 10,6 C 10,6 C 93 % 1023,2 hPa 0,0 mm 6,7 km/h (2 Bft) S-SO 157 9,5 C 10,6 km/h (2 Bft)
10.06.2015 00:55 10,6 C 10,6 C 93 % 1023,1 hPa 0,0 mm 5,2 km/h (1 Bft) O-NO 67 9,5 C 4,7 km/h (1 Bft)
10.06.2015 01:00 10,6 C 10,6 C 93 % 1023,1 hPa 0,0 mm 4,7 km/h (1 Bft) NO 45 9,5 C 11,4 km/h (2 Bft)
10.06.2015 01:05 10,6 C 10,6 C 93 % 1023,1 hPa 0,0 mm 5,2 km/h (1 Bft) NO 45 9,5 C 8,5 km/h (2 Bft)
10.06.2015 01:10 10,6 C 10,6 C 93 % 1023,1 hPa 0,0 mm 5,2 km/h (1 Bft) N-NO 22 9,5 C 5,7 km/h (1 Bft)
10.06.2015 01:15 10,6 C 10,6 C 93 % 1022,8 hPa 0,0 mm 4,4 km/h (1 Bft) O-SO 112 9,5 C 3,6 km/h (1 Bft)
10.06.2015 01:20 10,6 C 10,6 C 93 % 1022,8 hPa 0,0 mm 5,2 km/h (1 Bft) O-NO 67 9,5 C 9,3 km/h (2 Bft)
10.06.2015 01:25 10,6 C 10,6 C 93 % 1022,8 hPa 0,0 mm 6,0 km/h (2 Bft) S-SW 202 9,5 C 8,5 km/h (2 Bft)
10.06.2015 01:30 10,6 C 10,6 C 93 % 1022,8 hPa 0,0 mm 6,7 km/h (2 Bft) NO 45 9,5 C 10,4 km/h (2 Bft)
10.06.2015 01:35 10,6 C 10,6 C 93 % 1022,8 hPa 0,0 mm 6,5 km/h (2 Bft) O-NO 67 9,5 C 13,5 km/h (3 Bft)
10.06.2015 01:40 10,6 C 10,6 C 93 % 1022,8 hPa 0,0 mm 6,7 km/h (2 Bft) O-NO 67 9,5 C 10,1 km/h (2 Bft)
10.06.2015 01:45 10,6 C 10,6 C 94 % 1022,8 hPa 0,0 mm 6,2 km/h (2 Bft) NO 45 9,7 C 7,8 km/h (2 Bft)
10.06.2015 01:50 10,6 C 10,6 C 94 % 1022,8 hPa 0,0 mm 6,7 km/h (2 Bft) NO 45 9,7 C 13,5 km/h (3 Bft)
10.06.2015 01:55 10,6 C 10,5 C 94 % 1022,5 hPa 0,0 mm 8,0 km/h (2 Bft) N-NO 22 9,7 C 2,6 km/h (1 Bft)
10.06.2015 02:00 10,6 C 10,6 C 89 % 1022,5 hPa 0,0 mm 8,3 km/h (2 Bft) O-NO 67 8,9 C 13,2 km/h (3 Bft)
10.06.2015 02:05 10,6 C 10,5 C 94 % 1022,5 hPa 0,0 mm 7,8 km/h (2 Bft) O-SO 112 9,7 C 14,8 km/h (3 Bft)
10.06.2015 02:10 10,6 C 10,5 C 94 % 1022,5 hPa 0,0 mm 8,5 km/h (2 Bft) O-NO 67 9,7 C 14,5 km/h (3 Bft)
10.06.2015 02:15 10,6 C 10,5 C 94 % 1022,5 hPa 0,0 mm 8,0 km/h (2 Bft) N-NO 22 9,7 C 13,2 km/h (3 Bft)
10.06.2015 02:20 10,6 C 10,5 C 94 % 1022,5 hPa 0,0 mm 8,8 km/h (2 Bft) N-NW 337 9,7 C 8,3 km/h (2 Bft)
10.06.2015 02:25 10,6 C 10,5 C 94 % 1022,5 hPa 0,0 mm 7,8 km/h (2 Bft) N-NO 22 9,7 C 5,4 km/h (1 Bft)
10.06.2015 02:30 10,6 C 10,6 C 89 % 1022,5 hPa 0,0 mm 6,7 km/h (2 Bft) N-NO 22 8,9 C 11,1 km/h (2 Bft)
10.06.2015 02:35 10,6 C 10,6 C 89 % 1022,3 hPa 0,0 mm 7,0 km/h (2 Bft) NO 45 8,9 C 12,7 km/h (3 Bft)
10.06.2015 02:40 10,6 C 10,6 C 89 % 1022,3 hPa 0,0 mm 6,0 km/h (2 Bft) O 90 8,9 C 9,8 km/h (2 Bft)
10.06.2015 02:45 10,6 C 10,6 C 89 % 1022,3 hPa 0,0 mm 6,5 km/h (2 Bft) NO 45 8,9 C 12,2 km/h (2 Bft)
10.06.2015 02:50 10,6 C 10,6 C 89 % 1022,3 hPa 0,0 mm 6,0 km/h (2 Bft) O-NO 67 8,9 C 5,4 km/h (1 Bft)
10.06.2015 02:55 10,6 C 10,6 C 89 % 1022,1 hPa 0,0 mm 5,4 km/h (1 Bft) O-NO 67 8,9 C 3,6 km/h (1 Bft)
10.06.2015 03:00 10,6 C 10,6 C 89 % 1022,1 hPa 0,0 mm 3,9 km/h (1 Bft) O 90 8,9 C 10,6 km/h (2 Bft)
10.06.2015 03:05 10,7 C 10,6 C 94 % 1022,1 hPa 0,0 mm 4,1 km/h (1 Bft) SO 135 9,8 C 4,1 km/h (1 Bft)
10.06.2015 03:10 10,7 C 10,6 C 94 % 1022,1 hPa 0,0 mm 3,9 km/h (1 Bft) N-NO 22 9,8 C 0,0 km/h (0 Bft)
10.06.2015 03:15 10,7 C 10,7 C 94 % 1022,1 hPa 0,0 mm 4,7 km/h (1 Bft) S-SW 202 9,8 C 6,2 km/h (2 Bft)
10.06.2015 03:20 10,7 C 10,7 C 94 % 1022,1 hPa 0,0 mm 5,2 km/h (1 Bft) O-SO 112 9,8 C 14,5 km/h (3 Bft)
10.06.2015 03:25 10,7 C 10,7 C 94 % 1022,1 hPa 0,0 mm 5,2 km/h (1 Bft) O-NO 67 9,8 C 6,7 km/h (2 Bft)
10.06.2015 03:30 10,7 C 10,7 C 94 % 1022,1 hPa 0,0 mm 5,2 km/h (1 Bft) NO 45 9,8 C 14,2 km/h (3 Bft)
10.06.2015 03:35 10,7 C 10,7 C 94 % 1022,2 hPa 0,0 mm 5,7 km/h (1 Bft) O-SO 112 9,8 C 7,3 km/h (2 Bft)
10.06.2015 03:40 10,7 C 10,7 C 94 % 1022,2 hPa 0,0 mm 5,7 km/h (1 Bft) O-NO 67 9,8 C 4,4 km/h (1 Bft)
10.06.2015 03:45 10,7 C 10,7 C 94 % 1022,2 hPa 0,0 mm 5,2 km/h (1 Bft) NO 45 9,8 C 7,0 km/h (2 Bft)
10.06.2015 03:50 10,7 C 10,7 C 94 % 1022,2 hPa 0,0 mm 4,4 km/h (1 Bft) N-NO 22 9,8 C 4,7 km/h (1 Bft)
10.06.2015 03:55 10,7 C 10,7 C 89 % 1022,0 hPa 0,0 mm 4,1 km/h (1 Bft) N-NO 22 9,0 C 5,7 km/h (1 Bft)
10.06.2015 04:00 10,7 C 10,7 C 94 % 1022,0 hPa 0,0 mm 4,9 km/h (1 Bft) O-NO 67 9,8 C 5,7 km/h (1 Bft)
10.06.2015 04:05 10,8 C 10,8 C 94 % 1022,0 hPa 0,0 mm 6,0 km/h (2 Bft) NO 45 9,9 C 7,3 km/h (2 Bft)
10.06.2015 04:10 10,8 C 10,8 C 94 % 1022,0 hPa 0,0 mm 6,7 km/h (2 Bft) NO 45 9,9 C 12,4 km/h (3 Bft)
10.06.2015 04:15 10,8 C 10,8 C 94 % 1022,2 hPa 0,0 mm 6,2 km/h (2 Bft) N-NO 22 9,9 C 7,8 km/h (2 Bft)
10.06.2015 04:20 10,8 C 10,8 C 94 % 1022,2 hPa 0,0 mm 4,7 km/h (1 Bft) SW 225 9,9 C 5,2 km/h (1 Bft)
10.06.2015 04:25 10,8 C 10,9 C 89 % 1022,2 hPa 0,0 mm 4,1 km/h (1 Bft) O-NO 67 9,1 C 7,3 km/h (2 Bft)
10.06.2015 04:30 10,8 C 10,8 C 94 % 1022,2 hPa 0,0 mm 6,7 km/h (2 Bft) N-NO 22 9,9 C 10,9 km/h (2 Bft)
10.06.2015 04:35 10,8 C 10,8 C 94 % 1022,0 hPa 0,0 mm 7,0 km/h (2 Bft) O-SO 112 9,9 C 5,7 km/h (1 Bft)
10.06.2015 04:40 10,8 C 10,8 C 94 % 1022,0 hPa 0,0 mm 5,2 km/h (1 Bft) O-NO 67 9,9 C 7,8 km/h (2 Bft)
10.06.2015 04:45 10,8 C 10,8 C 94 % 1022,0 hPa 0,0 mm 5,4 km/h (1 Bft) O-SO 112 9,9 C 8,8 km/h (2 Bft)
10.06.2015 04:50 10,8 C 10,8 C 94 % 1022,0 hPa 0,0 mm 5,7 km/h (1 Bft) NO 45 9,9 C 11,1 km/h (2 Bft)
10.06.2015 04:55 10,8 C 10,8 C 94 % 1022,1 hPa 0,0 mm 4,7 km/h (1 Bft) NO 45 9,9 C 0,0 km/h (0 Bft)
10.06.2015 05:00 10,8 C 10,9 C 90 % 1022,1 hPa 0,0 mm 4,4 km/h (1 Bft) NO 45 9,2 C 5,4 km/h (1 Bft)
10.06.2015 05:05 10,8 C 10,8 C 94 % 1022,1 hPa 0,0 mm 4,1 km/h (1 Bft) N-NO 22 9,9 C 6,2 km/h (2 Bft)
10.06.2015 05:10 10,8 C 10,9 C 90 % 1022,1 hPa 0,0 mm 3,9 km/h (1 Bft) S-SO 157 9,2 C 0,0 km/h (0 Bft)
10.06.2015 05:15 10,8 C 10,9 C 90 % 1021,9 hPa 0,0 mm 2,8 km/h (1 Bft) O-NO 67 9,2 C 4,7 km/h (1 Bft)
10.06.2015 05:20 10,9 C 10,9 C 94 % 1021,9 hPa 0,0 mm 2,3 km/h (1 Bft) N-NO 22 10,0 C 6,2 km/h (2 Bft)
10.06.2015 05:25 10,9 C 10,9 C 94 % 1021,9 hPa 0,0 mm 3,6 km/h (1 Bft) O-NO 67 10,0 C 0,0 km/h (0 Bft)
10.06.2015 05:30 10,9 C 10,9 C 89 % 1021,9 hPa 0,0 mm 3,4 km/h (1 Bft) N-NO 22 9,2 C 5,4 km/h (1 Bft)
10.06.2015 05:35 10,9 C 10,9 C 89 % 1022,0 hPa 0,0 mm 3,4 km/h (1 Bft) O-NO 67 9,2 C 6,2 km/h (2 Bft)
10.06.2015 05:40 10,9 C 11,0 C 89 % 1022,0 hPa 0,0 mm 3,4 km/h (1 Bft) N-NO 22 9,2 C 0,0 km/h (0 Bft)
10.06.2015 05:45 11,0 C 11,0 C 94 % 1022,0 hPa 0,0 mm 3,4 km/h (1 Bft) NO 45 10,1 C 6,7 km/h (2 Bft)
10.06.2015 05:50 11,0 C 11,0 C 94 % 1022,0 hPa 0,0 mm 4,1 km/h (1 Bft) O-SO 112 10,1 C 4,1 km/h (1 Bft)
10.06.2015 05:55 11,0 C 11,0 C 94 % 1022,1 hPa 0,0 mm 3,9 km/h (1 Bft) O-SO 112 10,1 C 2,8 km/h (1 Bft)
10.06.2015 06:00 11,0 C 11,0 C 94 % 1022,1 hPa 0,0 mm 3,9 km/h (1 Bft) N-NO 22 10,1 C 6,2 km/h (2 Bft)
10.06.2015 06:05 11,0 C 11,1 C 89 % 1022,1 hPa 0,0 mm 4,4 km/h (1 Bft) O-NO 67 9,3 C 7,3 km/h (2 Bft)
10.06.2015 06:10 11,1 C 11,1 C 94 % 1022,1 hPa 0,0 mm 2,8 km/h (1 Bft) N 360 10,2 C 4,1 km/h (1 Bft)
10.06.2015 06:15 11,1 C 11,1 C 94 % 1022,1 hPa 0,0 mm 2,1 km/h (1 Bft) NO 45 10,2 C 5,7 km/h (1 Bft)
10.06.2015 06:20 11,1 C 11,1 C 94 % 1022,1 hPa 0,0 mm 4,4 km/h (1 Bft) NO 45 10,2 C 6,2 km/h (2 Bft)
10.06.2015 06:25 11,1 C 11,1 C 94 % 1022,1 hPa 0,0 mm 4,7 km/h (1 Bft) N-NO 22 10,2 C 4,1 km/h (1 Bft)
10.06.2015 06:30 11,1 C 11,1 C 94 % 1022,1 hPa 0,0 mm 4,7 km/h (1 Bft) O-NO 67 10,2 C 8,0 km/h (2 Bft)
10.06.2015 06:35 11,1 C 11,1 C 94 % 1022,1 hPa 0,0 mm 4,4 km/h (1 Bft) NO 45 10,2 C 4,9 km/h (1 Bft)
10.06.2015 06:40 11,1 C 11,2 C 89 % 1022,1 hPa 0,0 mm 3,6 km/h (1 Bft) N-NO 22 9,4 C 2,6 km/h (1 Bft)
10.06.2015 06:45 11,1 C 11,2 C 89 % 1022,1 hPa 0,0 mm 3,1 km/h (1 Bft) NO 45 9,4 C 0,0 km/h (0 Bft)
10.06.2015 06:50 11,1 C 11,2 C 89 % 1022,1 hPa 0,0 mm 2,3 km/h (1 Bft) O-NO 67 9,4 C 8,5 km/h (2 Bft)
10.06.2015 06:55 11,1 C 11,2 C 89 % 1022,2 hPa 0,0 mm 2,6 km/h (1 Bft) O-NO 67 9,4 C 0,0 km/h (0 Bft)
10.06.2015 07:00 11,1 C 11,2 C 89 % 1022,2 hPa 0,0 mm 2,8 km/h (1 Bft) NO 45 9,4 C 4,4 km/h (1 Bft)
10.06.2015 07:05 11,1 C 11,2 C 89 % 1022,2 hPa 0,0 mm 2,3 km/h (1 Bft) O-NO 67 9,4 C 3,4 km/h (1 Bft)
10.06.2015 07:10 11,1 C 11,2 C 89 % 1022,2 hPa 0,0 mm 2,3 km/h (1 Bft) NO 45 9,4 C 2,6 km/h (1 Bft)
10.06.2015 07:15 11,1 C 11,3 C 89 % 1022,3 hPa 0,0 mm 3,1 km/h (1 Bft) O-SO 112 9,4 C 3,9 km/h (1 Bft)
10.06.2015 07:20 11,1 C 11,3 C 89 % 1022,3 hPa 0,0 mm 3,6 km/h (1 Bft) O-NO 67 9,4 C 7,0 km/h (2 Bft)
10.06.2015 07:25 11,1 C 11,3 C 89 % 1022,3 hPa 0,0 mm 3,9 km/h (1 Bft) NO 45 9,4 C 7,3 km/h (2 Bft)
10.06.2015 07:30 11,1 C 11,3 C 89 % 1022,3 hPa 0,0 mm 5,2 km/h (1 Bft) O 90 9,4 C 9,3 km/h (2 Bft)
10.06.2015 07:35 11,3 C 11,3 C 89 % 1022,0 hPa 0,0 mm 5,2 km/h (1 Bft) O-NO 67 9,6 C 4,4 km/h (1 Bft)
10.06.2015 07:40 11,3 C 11,4 C 89 % 1022,0 hPa 0,0 mm 3,9 km/h (1 Bft) NO 45 9,6 C 7,8 km/h (2 Bft)
10.06.2015 07:45 11,3 C 11,4 C 89 % 1022,0 hPa 0,0 mm 4,4 km/h (1 Bft) O-NO 67 9,6 C 6,5 km/h (2 Bft)
10.06.2015 07:50 11,3 C 11,4 C 89 % 1022,0 hPa 0,0 mm 5,7 km/h (1 Bft) N 360 9,6 C 7,3 km/h (2 Bft)
10.06.2015 07:55 11,3 C 11,4 C 89 % 1022,4 hPa 0,0 mm 6,5 km/h (2 Bft) NO 45 9,6 C 7,8 km/h (2 Bft)
10.06.2015 08:00 11,3 C 11,4 C 89 % 1022,4 hPa 0,7 mm 6,5 km/h (2 Bft) SW 225 9,6 C 5,7 km/h (1 Bft)
10.06.2015 08:05 11,3 C 11,4 C 89 % 1022,4 hPa 0,0 mm 6,5 km/h (2 Bft) O-NO 67 9,6 C 13,2 km/h (3 Bft)
10.06.2015 08:10 11,3 C 11,4 C 89 % 1022,4 hPa 0,0 mm 4,7 km/h (1 Bft) NO 45 9,6 C 6,0 km/h (2 Bft)
10.06.2015 08:15 11,3 C 11,4 C 89 % 1022,1 hPa 0,0 mm 4,9 km/h (1 Bft) NO 45 9,6 C 7,8 km/h (2 Bft)
10.06.2015 08:20 11,3 C 11,5 C 89 % 1022,1 hPa 0,0 mm 5,4 km/h (1 Bft) NO 45 9,6 C 7,0 km/h (2 Bft)
10.06.2015 08:25 11,3 C 11,4 C 89 % 1022,1 hPa 0,0 mm 5,7 km/h (1 Bft) NO 45 9,6 C 14,0 km/h (3 Bft)
10.06.2015 08:30 11,3 C 11,5 C 89 % 1022,1 hPa 0,0 mm 6,2 km/h (2 Bft) O-NO 67 9,6 C 6,0 km/h (2 Bft)
10.06.2015 08:35 11,4 C 11,6 C 89 % 1022,6 hPa 0,0 mm 4,9 km/h (1 Bft) O-NO 67 9,7 C 6,2 km/h (2 Bft)
10.06.2015 08:40 11,4 C 11,7 C 89 % 1022,6 hPa 0,0 mm 3,9 km/h (1 Bft) N-NO 22 9,7 C 9,3 km/h (2 Bft)
10.06.2015 08:45 11,5 C 11,7 C 89 % 1022,6 hPa 0,0 mm 4,1 km/h (1 Bft) SO 135 9,8 C 0,0 km/h (0 Bft)
10.06.2015 08:50 11,5 C 11,7 C 90 % 1022,6 hPa 0,0 mm 3,1 km/h (1 Bft) N-NW 337 9,9 C 6,2 km/h (2 Bft)
10.06.2015 08:55 11,5 C 11,7 C 90 % 1022,4 hPa 0,0 mm 2,6 km/h (1 Bft) O-NO 67 9,9 C 0,0 km/h (0 Bft)
10.06.2015 09:00 11,5 C 11,8 C 90 % 1022,4 hPa 0,0 mm 2,6 km/h (1 Bft) O-NO 67 9,9 C 6,0 km/h (2 Bft)
10.06.2015 09:05 11,5 C 11,8 C 90 % 1022,4 hPa 0,0 mm 2,8 km/h (1 Bft) O-NO 67 9,9 C 5,7 km/h (1 Bft)
10.06.2015 09:10 11,6 C 11,9 C 90 % 1022,4 hPa 0,0 mm 3,1 km/h (1 Bft) O-NO 67 10,0 C 5,2 km/h (1 Bft)
10.06.2015 09:15 11,6 C 11,9 C 90 % 1022,6 hPa 0,0 mm 2,6 km/h (1 Bft) N-NW 337 10,0 C 3,6 km/h (1 Bft)
10.06.2015 09:20 11,6 C 11,9 C 90 % 1022,6 hPa 0,0 mm 3,1 km/h (1 Bft) O-NO 67 10,0 C 0,0 km/h (0 Bft)
10.06.2015 09:25 11,7 C 12,0 C 90 % 1022,6 hPa 0,0 mm 3,4 km/h (1 Bft) NO 45 10,1 C 5,4 km/h (1 Bft)
10.06.2015 09:30 11,7 C 12,1 C 90 % 1022,6 hPa 0,0 mm 3,4 km/h (1 Bft) O-NO 67 10,1 C 4,4 km/h (1 Bft)
10.06.2015 09:35 11,8 C 12,3 C 90 % 1022,6 hPa 0,0 mm 3,4 km/h (1 Bft) O-NO 67 10,2 C 4,9 km/h (1 Bft)
10.06.2015 09:40 11,9 C 12,5 C 90 % 1022,6 hPa 0,0 mm 3,1 km/h (1 Bft) N-NO 22 10,3 C 4,7 km/h (1 Bft)
10.06.2015 09:45 12,0 C 12,7 C 89 % 1022,6 hPa 0,0 mm 4,1 km/h (1 Bft) O-SO 112 10,2 C 6,0 km/h (2 Bft)
10.06.2015 09:50 12,1 C 12,9 C 89 % 1022,6 hPa 0,0 mm 4,4 km/h (1 Bft) NO 45 10,3 C 9,3 km/h (2 Bft)
10.06.2015 09:55 12,1 C 12,9 C 89 % 1022,7 hPa 0,0 mm 5,4 km/h (1 Bft) O-NO 67 10,3 C 8,8 km/h (2 Bft)
10.06.2015 10:00 12,1 C 12,8 C 89 % 1022,7 hPa 0,0 mm 7,0 km/h (2 Bft) N-NO 22 10,3 C 9,3 km/h (2 Bft)
10.06.2015 10:05 12,1 C 12,8 C 89 % 1022,7 hPa 0,0 mm 6,0 km/h (2 Bft) NO 45 10,3 C 7,5 km/h (2 Bft)
10.06.2015 10:10 12,1 C 12,9 C 89 % 1022,7 hPa 0,0 mm 5,2 km/h (1 Bft) NO 45 10,3 C 9,8 km/h (2 Bft)
10.06.2015 10:15 12,2 C 13,1 C 89 % 1022,8 hPa 0,0 mm 6,0 km/h (2 Bft) O-SO 112 10,4 C 8,3 km/h (2 Bft)
10.06.2015 10:20 12,5 C 13,8 C 89 % 1022,8 hPa 0,0 mm 5,4 km/h (1 Bft) N-NO 22 10,7 C 11,9 km/h (2 Bft)
10.06.2015 10:25 12,6 C 14,2 C 89 % 1022,8 hPa 0,0 mm 4,9 km/h (1 Bft) N-NO 22 10,8 C 4,1 km/h (1 Bft)
10.06.2015 10:30 12,7 C 14,7 C 89 % 1022,8 hPa 0,0 mm 6,5 km/h (2 Bft) NO 45 10,9 C 12,2 km/h (2 Bft)
10.06.2015 10:35 12,7 C 14,7 C 89 % 1022,8 hPa 0,0 mm 6,7 km/h (2 Bft) N-NO 22 10,9 C 5,4 km/h (1 Bft)
10.06.2015 10:40 12,8 C 14,9 C 89 % 1022,8 hPa 0,0 mm 6,7 km/h (2 Bft) N-NO 22 11,0 C 8,3 km/h (2 Bft)
10.06.2015 10:45 12,9 C 14,8 C 89 % 1022,8 hPa 0,0 mm 7,0 km/h (2 Bft) N-NO 22 11,1 C 6,5 km/h (2 Bft)
10.06.2015 10:50 13,0 C 14,8 C 89 % 1022,8 hPa 0,0 mm 7,8 km/h (2 Bft) O-NO 67 11,2 C 13,5 km/h (3 Bft)
10.06.2015 10:55 13,0 C 15,0 C 89 % 1022,3 hPa 0,0 mm 7,3 km/h (2 Bft) N-NO 22 11,2 C 6,0 km/h (2 Bft)
10.06.2015 11:00 13,0 C 15,0 C 89 % 1022,3 hPa 0,0 mm 7,3 km/h (2 Bft) N-NO 22 11,2 C 11,4 km/h (2 Bft)
10.06.2015 11:05 13,0 C 15,0 C 89 % 1022,3 hPa 0,0 mm 7,0 km/h (2 Bft) O-NO 67 11,2 C 4,7 km/h (1 Bft)
10.06.2015 11:10 13,1 C 15,2 C 89 % 1022,3 hPa 0,0 mm 6,7 km/h (2 Bft) O-NO 67 11,3 C 3,9 km/h (1 Bft)
10.06.2015 11:15 13,2 C 15,4 C 89 % 1022,9 hPa 0,0 mm 6,7 km/h (2 Bft) NO 45 11,4 C 12,9 km/h (3 Bft)
10.06.2015 11:20 13,4 C 15,4 C 89 % 1022,9 hPa 0,0 mm 7,3 km/h (2 Bft) N-NO 22 11,6 C 8,5 km/h (2 Bft)
10.06.2015 11:25 13,4 C 15,5 C 89 % 1022,9 hPa 0,0 mm 7,5 km/h (2 Bft) NO 45 11,6 C 7,8 km/h (2 Bft)
10.06.2015 11:30 13,4 C 15,4 C 89 % 1022,9 hPa 0,0 mm 6,7 km/h (2 Bft) N-NO 22 11,6 C 5,7 km/h (1 Bft)
10.06.2015 11:35 13,6 C 15,5 C 89 % 1022,8 hPa 0,0 mm 6,2 km/h (2 Bft) N-NO 22 11,8 C 4,4 km/h (1 Bft)
10.06.2015 11:40 13,8 C 15,9 C 89 % 1022,8 hPa 0,0 mm 6,5 km/h (2 Bft) NO 45 12,0 C 10,1 km/h (2 Bft)
10.06.2015 11:45 14,0 C 16,2 C 88 % 1022,8 hPa 0,0 mm 6,5 km/h (2 Bft) N-NO 22 12,0 C 7,3 km/h (2 Bft)
10.06.2015 11:50 14,0 C 16,4 C 88 % 1022,8 hPa 0,0 mm 7,3 km/h (2 Bft) O-NO 67 12,0 C 6,7 km/h (2 Bft)
10.06.2015 11:55 14,0 C 16,3 C 88 % 1022,8 hPa 0,0 mm 7,5 km/h (2 Bft) N-NO 22 12,0 C 10,9 km/h (2 Bft)
10.06.2015 12:00 14,1 C 16,2 C 88 % 1022,8 hPa 0,0 mm 7,0 km/h (2 Bft) O-NO 67 12,1 C 8,5 km/h (2 Bft)
10.06.2015 12:05 14,2 C 16,4 C 88 % 1022,8 hPa 0,0 mm 7,0 km/h (2 Bft) O 90 12,2 C 8,0 km/h (2 Bft)
10.06.2015 12:10 14,3 C 16,6 C 88 % 1022,8 hPa 0,0 mm 7,8 km/h (2 Bft) NW 315 12,3 C 9,8 km/h (2 Bft)
10.06.2015 12:15 14,3 C 16,9 C 88 % 1022,8 hPa 0,0 mm 8,8 km/h (2 Bft) N-NO 22 12,3 C 8,8 km/h (2 Bft)
10.06.2015 12:20 14,5 C 16,9 C 87 % 1022,8 hPa 0,0 mm 8,8 km/h (2 Bft) O-NO 67 12,4 C 18,4 km/h (3 Bft)
10.06.2015 12:25 14,4 C 16,6 C 87 % 1022,8 hPa 0,0 mm 9,1 km/h (2 Bft) SO 135 12,3 C 9,6 km/h (2 Bft)
10.06.2015 12:30 14,5 C 17,0 C 87 % 1022,8 hPa 0,0 mm 7,3 km/h (2 Bft) N 360 12,4 C 8,0 km/h (2 Bft)
10.06.2015 12:35 14,6 C 17,1 C 87 % 1023,0 hPa 0,0 mm 6,5 km/h (2 Bft) O-NO 67 12,5 C 6,0 km/h (2 Bft)
10.06.2015 12:40 14,6 C 17,1 C 87 % 1023,0 hPa 0,0 mm 6,5 km/h (2 Bft) O-NO 67 12,5 C 4,4 km/h (1 Bft)
10.06.2015 12:45 14,7 C 17,2 C 87 % 1023,0 hPa 0,0 mm 4,9 km/h (1 Bft) O-NO 67 12,6 C 7,5 km/h (2 Bft)
10.06.2015 12:50 14,8 C 17,4 C 86 % 1023,0 hPa 0,0 mm 4,4 km/h (1 Bft) O-NO 67 12,5 C 7,8 km/h (2 Bft)
10.06.2015 12:55 14,8 C 17,6 C 86 % 1023,2 hPa 0,0 mm 5,2 km/h (1 Bft) O-NO 67 12,5 C 8,0 km/h (2 Bft)
10.06.2015 13:00 14,7 C 17,2 C 86 % 1023,2 hPa 0,0 mm 6,7 km/h (2 Bft) NO 45 12,4 C 8,0 km/h (2 Bft)
10.06.2015 13:05 14,7 C 17,2 C 85 % 1023,2 hPa 0,0 mm 7,0 km/h (2 Bft) N-NO 22 12,2 C 7,0 km/h (2 Bft)
10.06.2015 13:10 14,9 C 17,5 C 85 % 1023,2 hPa 0,0 mm 6,2 km/h (2 Bft) O-NO 67 12,4 C 9,1 km/h (2 Bft)
10.06.2015 13:15 15,0 C 17,6 C 85 % 1023,1 hPa 0,0 mm 6,5 km/h (2 Bft) NO 45 12,5 C 5,7 km/h (1 Bft)
10.06.2015 13:20 15,1 C 17,8 C 85 % 1023,1 hPa 0,0 mm 6,5 km/h (2 Bft) N-NO 22 12,6 C 9,3 km/h (2 Bft)
10.06.2015 13:25 15,1 C 17,7 C 85 % 1023,1 hPa 0,0 mm 6,0 km/h (2 Bft) SO 135 12,6 C 4,7 km/h (1 Bft)
10.06.2015 13:30 15,0 C 17,4 C 84 % 1023,1 hPa 0,0 mm 4,9 km/h (1 Bft) W-SW 247 12,3 C 6,5 km/h (2 Bft)
10.06.2015 13:35 15,0 C 17,2 C 84 % 1023,2 hPa 0,0 mm 5,2 km/h (1 Bft) NO 45 12,3 C 9,8 km/h (2 Bft)
10.06.2015 13:40 15,0 C 17,1 C 84 % 1023,2 hPa 0,0 mm 6,7 km/h (2 Bft) O-NO 67 12,3 C 12,9 km/h (3 Bft)
10.06.2015 13:45 15,0 C 17,1 C 84 % 1023,2 hPa 0,0 mm 6,2 km/h (2 Bft) O-NO 67 12,3 C 7,3 km/h (2 Bft)
10.06.2015 13:50 15,1 C 17,0 C 84 % 1023,2 hPa 0,0 mm 6,2 km/h (2 Bft) N-NO 22 12,4 C 11,9 km/h (2 Bft)
10.06.2015 13:55 15,1 C 17,0 C 84 % 1023,1 hPa 0,0 mm 7,0 km/h (2 Bft) N-NW 337 12,4 C 9,8 km/h (2 Bft)
10.06.2015 14:00 15,0 C 17,0 C 84 % 1023,1 hPa 0,0 mm 7,8 km/h (2 Bft) O-NO 67 12,3 C 11,7 km/h (2 Bft)
10.06.2015 14:05 15,0 C 16,8 C 83 % 1023,1 hPa 0,0 mm 7,8 km/h (2 Bft) O-NO 67 12,1 C 10,9 km/h (2 Bft)
10.06.2015 14:10 15,0 C 16,6 C 83 % 1023,1 hPa 0,0 mm 8,3 km/h (2 Bft) O-SO 112 12,1 C 19,7 km/h (3 Bft)
10.06.2015 14:15 15,0 C 16,6 C 83 % 1023,1 hPa 0,0 mm 7,8 km/h (2 Bft) SO 135 12,1 C 9,8 km/h (2 Bft)
10.06.2015 14:20 14,9 C 16,6 C 83 % 1023,1 hPa 0,0 mm 7,8 km/h (2 Bft) O-NO 67 12,0 C 10,9 km/h (2 Bft)
10.06.2015 14:25 15,1 C 16,8 C 83 % 1023,1 hPa 0,0 mm 6,5 km/h (2 Bft) O-NO 67 12,2 C 5,7 km/h (1 Bft)
10.06.2015 14:30 15,2 C 17,0 C 83 % 1023,1 hPa 0,0 mm 5,4 km/h (1 Bft) O-NO 67 12,3 C 6,2 km/h (2 Bft)
10.06.2015 14:35 15,1 C 17,0 C 83 % 1023,1 hPa 0,0 mm 5,7 km/h (1 Bft) O-NO 67 12,2 C 6,7 km/h (2 Bft)
10.06.2015 14:40 15,3 C 17,0 C 83 % 1023,1 hPa 0,0 mm 6,5 km/h (2 Bft) N-NO 22 12,4 C 9,1 km/h (2 Bft)
10.06.2015 14:45 15,3 C 17,2 C 83 % 1023,1 hPa 0,0 mm 6,2 km/h (2 Bft) NO 45 12,4 C 0,0 km/h (0 Bft)
10.06.2015 14:50 15,5 C 17,8 C 82 % 1023,1 hPa 0,0 mm 6,0 km/h (2 Bft) N-NO 22 12,4 C 9,3 km/h (2 Bft)
10.06.2015 14:55 15,4 C 17,4 C 82 % 1023,1 hPa 0,0 mm 6,0 km/h (2 Bft) N-NO 22 12,3 C 10,1 km/h (2 Bft)
10.06.2015 15:00 15,3 C 17,0 C 82 % 1023,1 hPa 0,0 mm 6,7 km/h (2 Bft) N-NW 337 12,2 C 4,4 km/h (1 Bft)
10.06.2015 15:05 15,4 C 17,0 C 82 % 1023,1 hPa 0,0 mm 6,0 km/h (2 Bft) O-NO 67 12,3 C 5,2 km/h (1 Bft)
10.06.2015 15:10 15,5 C 17,2 C 82 % 1023,1 hPa 0,0 mm 4,9 km/h (1 Bft) NO 45 12,4 C 8,0 km/h (2 Bft)
10.06.2015 15:15 15,6 C 17,4 C 82 % 1023,0 hPa 0,0 mm 4,9 km/h (1 Bft) NO 45 12,5 C 3,9 km/h (1 Bft)
10.06.2015 15:20 15,7 C 17,5 C 82 % 1023,0 hPa 0,0 mm 4,9 km/h (1 Bft) N-NO 22 12,6 C 3,6 km/h (1 Bft)
10.06.2015 15:25 15,7 C 17,5 C 81 % 1023,0 hPa 0,0 mm 4,7 km/h (1 Bft) O-NO 67 12,4 C 3,4 km/h (1 Bft)
10.06.2015 15:30 15,6 C 17,3 C 81 % 1023,0 hPa 0,0 mm 4,1 km/h (1 Bft) O-SO 112 12,3 C 0,0 km/h (0 Bft)
10.06.2015 15:35 15,7 C 17,3 C 81 % 1023,0 hPa 0,0 mm 5,2 km/h (1 Bft) N-NO 22 12,4 C 8,8 km/h (2 Bft)
10.06.2015 15:40 15,5 C 17,0 C 81 % 1023,0 hPa 0,0 mm 6,0 km/h (2 Bft) O-NO 67 12,3 C 8,3 km/h (2 Bft)
10.06.2015 15:45 15,5 C 16,8 C 81 % 1023,0 hPa 0,0 mm 6,2 km/h (2 Bft) N-NW 337 12,3 C 7,3 km/h (2 Bft)
10.06.2015 15:50 15,5 C 16,8 C 81 % 1023,0 hPa 0,0 mm 4,7 km/h (1 Bft) NO 45 12,3 C 4,1 km/h (1 Bft)
10.06.2015 15:55 15,5 C 16,7 C 81 % 1022,8 hPa 0,0 mm 4,9 km/h (1 Bft) N-NO 22 12,3 C 7,8 km/h (2 Bft)
10.06.2015 16:00 15,6 C 16,8 C 81 % 1022,8 hPa 0,0 mm 4,1 km/h (1 Bft) O-NO 67 12,3 C 8,0 km/h (2 Bft)
10.06.2015 16:05 15,6 C 16,8 C 81 % 1022,8 hPa 0,0 mm 3,9 km/h (1 Bft) NO 45 12,3 C 7,0 km/h (2 Bft)
10.06.2015 16:10 15,5 C 16,6 C 81 % 1022,8 hPa 0,0 mm 5,4 km/h (1 Bft) NO 45 12,3 C 8,8 km/h (2 Bft)
10.06.2015 16:15 15,5 C 16,6 C 81 % 1023,1 hPa 0,0 mm 5,7 km/h (1 Bft) W-NW 292 12,3 C 4,9 km/h (1 Bft)
10.06.2015 16:20 15,6 C 16,7 C 81 % 1023,1 hPa 0,0 mm 5,2 km/h (1 Bft) O-NO 67 12,3 C 8,5 km/h (2 Bft)
10.06.2015 16:25 15,6 C 16,8 C 81 % 1023,1 hPa 0,0 mm 4,1 km/h (1 Bft) N-NO 22 12,3 C 8,0 km/h (2 Bft)
10.06.2015 16:30 15,7 C 16,8 C 81 % 1023,1 hPa 0,0 mm 4,7 km/h (1 Bft) W-NW 292 12,4 C 0,0 km/h (0 Bft)
10.06.2015 16:35 15,8 C 17,0 C 81 % 1022,8 hPa 0,0 mm 3,4 km/h (1 Bft) N-NO 22 12,5 C 0,0 km/h (0 Bft)
10.06.2015 16:40 15,8 C 17,0 C 81 % 1022,8 hPa 0,0 mm 2,6 km/h (1 Bft) N-NW 337 12,5 C 0,0 km/h (0 Bft)
10.06.2015 16:45 15,8 C 17,0 C 81 % 1022,8 hPa 0,0 mm 2,6 km/h (1 Bft) N-NW 337 12,5 C 0,0 km/h (0 Bft)
10.06.2015 16:50 15,9 C 17,0 C 81 % 1022,8 hPa 0,0 mm 2,8 km/h (1 Bft) NO 45 12,6 C 5,4 km/h (1 Bft)
10.06.2015 16:55 15,8 C 17,0 C 81 % 1022,7 hPa 0,0 mm 3,6 km/h (1 Bft) NO 45 12,5 C 0,0 km/h (0 Bft)
10.06.2015 17:00 15,9 C 17,0 C 81 % 1022,7 hPa 0,0 mm 3,6 km/h (1 Bft) O-SO 112 12,6 C 4,9 km/h (1 Bft)
10.06.2015 17:05 15,9 C 17,1 C 81 % 1022,7 hPa 0,0 mm 3,4 km/h (1 Bft) NO 45 12,6 C 6,7 km/h (2 Bft)
10.06.2015 17:10 15,9 C 17,2 C 80 % 1022,7 hPa 0,0 mm 3,9 km/h (1 Bft) NW 315 12,5 C 5,2 km/h (1 Bft)
10.06.2015 17:15 15,9 C 17,1 C 80 % 1022,7 hPa 0,0 mm 4,9 km/h (1 Bft) N-NO 22 12,5 C 2,8 km/h (1 Bft)
10.06.2015 17:20 15,8 C 17,0 C 80 % 1022,7 hPa 0,0 mm 4,4 km/h (1 Bft) O-NO 67 12,4 C 6,0 km/h (2 Bft)
10.06.2015 17:25 15,8 C 17,0 C 80 % 1022,7 hPa 0,0 mm 2,8 km/h (1 Bft) O-NO 67 12,4 C 0,0 km/h (0 Bft)
10.06.2015 17:30 15,9 C 16,9 C 80 % 1022,7 hPa 0,0 mm 1,8 km/h (1 Bft) NW 315 12,5 C 0,0 km/h (0 Bft)
10.06.2015 17:35 15,9 C 16,9 C 80 % 1022,9 hPa 0,0 mm 2,3 km/h (1 Bft) N-NW 337 12,5 C 4,7 km/h (1 Bft)
10.06.2015 17:40 15,8 C 16,7 C 80 % 1022,9 hPa 0,0 mm 4,4 km/h (1 Bft) O-NO 67 12,4 C 6,5 km/h (2 Bft)
10.06.2015 17:45 15,8 C 16,7 C 80 % 1022,9 hPa 0,0 mm 4,7 km/h (1 Bft) O-SO 112 12,4 C 5,7 km/h (1 Bft)
10.06.2015 17:50 15,9 C 16,8 C 79 % 1022,9 hPa 0,0 mm 2,1 km/h (1 Bft) O-NO 67 12,3 C 3,1 km/h (1 Bft)
10.06.2015 17:55 15,9 C 17,0 C 79 % 1022,7 hPa 0,0 mm 1,0 km/h (0 Bft) N-NW 337 12,3 C 3,1 km/h (1 Bft)
10.06.2015 18:00 15,9 C 17,0 C 79 % 1022,7 hPa 0,0 mm 1,0 km/h (0 Bft) O-SO 112 12,3 C 0,0 km/h (0 Bft)
10.06.2015 18:05 15,9 C 17,0 C 79 % 1022,7 hPa 0,0 mm 2,6 km/h (1 Bft) N-NO 22 12,3 C 8,0 km/h (2 Bft)
10.06.2015 18:10 15,7 C 16,6 C 79 % 1022,7 hPa 0,0 mm 4,7 km/h (1 Bft) O-SO 112 12,1 C 5,4 km/h (1 Bft)
10.06.2015 18:15 15,7 C 16,5 C 79 % 1022,8 hPa 0,0 mm 4,7 km/h (1 Bft) NO 45 12,1 C 7,5 km/h (2 Bft)
10.06.2015 18:20 15,6 C 16,3 C 79 % 1022,8 hPa 0,0 mm 3,9 km/h (1 Bft) N-NO 22 12,0 C 2,6 km/h (1 Bft)
10.06.2015 18:25 15,6 C 16,2 C 79 % 1022,8 hPa 0,0 mm 3,6 km/h (1 Bft) O-NO 67 12,0 C 0,0 km/h (0 Bft)
10.06.2015 18:30 15,6 C 16,2 C 79 % 1022,8 hPa 0,0 mm 3,6 km/h (1 Bft) N-NO 22 12,0 C 4,7 km/h (1 Bft)
10.06.2015 18:35 15,5 C 16,0 C 79 % 1022,7 hPa 0,0 mm 3,9 km/h (1 Bft) O-SO 112 11,9 C 0,0 km/h (0 Bft)
10.06.2015 18:40 15,4 C 16,0 C 79 % 1022,7 hPa 0,0 mm 1,8 km/h (1 Bft) N-NW 337 11,8 C 0,0 km/h (0 Bft)
10.06.2015 18:45 15,4 C 16,0 C 79 % 1022,7 hPa 0,0 mm 0,5 km/h (0 Bft) O-SO 112 11,8 C 4,9 km/h (1 Bft)
10.06.2015 18:50 15,2 C 15,8 C 80 % 1022,7 hPa 0,0 mm 1,3 km/h (1 Bft) O-SO 112 11,8 C 0,0 km/h (0 Bft)
10.06.2015 18:55 15,2 C 15,8 C 80 % 1022,7 hPa 0,0 mm 1,8 km/h (1 Bft) SO 135 11,8 C 3,1 km/h (1 Bft)
10.06.2015 19:00 15,1 C 15,6 C 80 % 1022,7 hPa 0,0 mm 1,0 km/h (0 Bft) N-NW 337 11,7 C 0,0 km/h (0 Bft)
10.06.2015 19:05 15,1 C 15,6 C 80 % 1022,7 hPa 0,0 mm 0,8 km/h (0 Bft) NO 45 11,7 C 0,0 km/h (0 Bft)
10.06.2015 19:10 15,1 C 15,5 C 81 % 1022,7 hPa 0,0 mm 0,8 km/h (0 Bft) NO 45 11,9 C 6,0 km/h (2 Bft)
10.06.2015 19:15 15,1 C 15,4 C 81 % 1022,8 hPa 0,0 mm 1,0 km/h (0 Bft) O-NO 67 11,9 C 0,0 km/h (0 Bft)
10.06.2015 19:20 15,0 C 15,4 C 81 % 1022,8 hPa 0,0 mm 1,8 km/h (1 Bft) O-SO 112 11,8 C 5,2 km/h (1 Bft)
10.06.2015 19:25 15,0 C 15,3 C 81 % 1022,8 hPa 0,0 mm 1,6 km/h (1 Bft) O 90 11,8 C 2,8 km/h (1 Bft)
10.06.2015 19:30 14,9 C 15,2 C 81 % 1022,8 hPa 0,0 mm 2,6 km/h (1 Bft) N-NO 22 11,7 C 0,0 km/h (0 Bft)
10.06.2015 19:35 14,9 C 15,1 C 81 % 1022,9 hPa 0,0 mm 2,1 km/h (1 Bft) S 180 11,7 C 0,0 km/h (0 Bft)
10.06.2015 19:40 14,8 C 15,0 C 82 % 1022,9 hPa 0,0 mm 0,8 km/h (0 Bft) N-NO 22 11,8 C 0,0 km/h (0 Bft)
10.06.2015 19:45 14,7 C 14,9 C 82 % 1022,9 hPa 0,0 mm 1,3 km/h (1 Bft) O-NO 67 11,7 C 3,1 km/h (1 Bft)
10.06.2015 19:50 14,6 C 14,8 C 82 % 1022,9 hPa 0,0 mm 1,0 km/h (0 Bft) SO 135 11,6 C 0,0 km/h (0 Bft)
10.06.2015 19:55 14,6 C 14,7 C 82 % 1023,0 hPa 0,0 mm 0,5 km/h (0 Bft) O-NO 67 11,6 C 0,0 km/h (0 Bft)
10.06.2015 20:00 14,5 C 14,6 C 83 % 1023,0 hPa 0,0 mm 0,5 km/h (0 Bft) N-NO 22 11,6 C 2,6 km/h (1 Bft)
10.06.2015 20:05 14,5 C 14,6 C 83 % 1023,0 hPa 0,0 mm 1,3 km/h (1 Bft) O 90 11,6 C 2,6 km/h (1 Bft)
10.06.2015 20:10 14,4 C 14,4 C 83 % 1023,0 hPa 0,0 mm 1,6 km/h (1 Bft) O-NO 67 11,5 C 0,0 km/h (0 Bft)
10.06.2015 20:15 14,5 C 14,5 C 83 % 1022,9 hPa 0,0 mm 1,6 km/h (1 Bft) N-NO 22 11,6 C 4,1 km/h (1 Bft)
10.06.2015 20:20 14,4 C 14,5 C 84 % 1022,9 hPa 0,0 mm 2,1 km/h (1 Bft) N-NO 22 11,7 C 3,1 km/h (1 Bft)
10.06.2015 20:25 14,3 C 14,4 C 84 % 1022,9 hPa 0,0 mm 2,1 km/h (1 Bft) SO 135 11,6 C 0,0 km/h (0 Bft)
10.06.2015 20:30 14,2 C 14,3 C 84 % 1022,9 hPa 0,0 mm 0,5 km/h (0 Bft) SO 135 11,5 C 0,0 km/h (0 Bft)
10.06.2015 20:35 14,2 C 14,2 C 84 % 1022,8 hPa 0,0 mm 0,3 km/h (0 Bft) SO 135 11,5 C 0,0 km/h (0 Bft)
10.06.2015 20:40 14,2 C 14,2 C 84 % 1022,8 hPa 0,0 mm 0,0 km/h (0 Bft) S 180 11,5 C 0,0 km/h (0 Bft)
10.06.2015 20:45 14,1 C 14,1 C 84 % 1022,8 hPa 0,0 mm 0,0 km/h (0 Bft) S 180 11,4 C 0,0 km/h (0 Bft)
10.06.2015 20:50 14,0 C 14,0 C 85 % 1022,8 hPa 0,0 mm 0,3 km/h (0 Bft) SO 135 11,5 C 0,0 km/h (0 Bft)
10.06.2015 20:55 14,0 C 14,0 C 85 % 1022,8 hPa 0,0 mm 0,5 km/h (0 Bft) O 90 11,5 C 0,0 km/h (0 Bft)
10.06.2015 21:00 14,0 C 14,0 C 85 % 1022,8 hPa 0,0 mm 0,3 km/h (0 Bft) O-NO 67 11,5 C 0,0 km/h (0 Bft)
10.06.2015 21:05 13,9 C 13,9 C 85 % 1022,8 hPa 0,0 mm 0,3 km/h (0 Bft) S-SO 157 11,4 C 2,8 km/h (1 Bft)
10.06.2015 21:10 13,9 C 13,9 C 85 % 1022,8 hPa 0,0 mm 0,3 km/h (0 Bft) SO 135 11,4 C 0,0 km/h (0 Bft)
10.06.2015 21:15 13,9 C 13,9 C 85 % 1022,9 hPa 0,0 mm 0,3 km/h (0 Bft) O-SO 112 11,4 C 0,0 km/h (0 Bft)
10.06.2015 21:20 13,8 C 13,8 C 85 % 1022,9 hPa 0,0 mm 0,3 km/h (0 Bft) S 180 11,3 C 0,0 km/h (0 Bft)
10.06.2015 21:25 13,8 C 13,8 C 85 % 1022,9 hPa 0,0 mm 0,3 km/h (0 Bft) O 90 11,3 C 0,0 km/h (0 Bft)
10.06.2015 21:30 13,8 C 13,8 C 85 % 1022,9 hPa 0,0 mm 0,0 km/h (0 Bft) S 180 11,3 C 2,8 km/h (1 Bft)
10.06.2015 21:35 13,7 C 13,8 C 84 % 1023,2 hPa 0,0 mm 0,3 km/h (0 Bft) S-SO 157 11,0 C 0,0 km/h (0 Bft)
10.06.2015 21:40 13,7 C 13,7 C 85 % 1023,2 hPa 0,0 mm 0,3 km/h (0 Bft) S-SO 157 11,2 C 0,0 km/h (0 Bft)
10.06.2015 21:45 13,7 C 13,7 C 86 % 1023,2 hPa 0,0 mm 0,0 km/h (0 Bft) S-SO 157 11,4 C 0,0 km/h (0 Bft)
10.06.2015 21:50 13,6 C 13,7 C 84 % 1023,2 hPa 0,0 mm 0,0 km/h (0 Bft) S 180 10,9 C 0,0 km/h (0 Bft)
10.06.2015 21:55 13,6 C 13,7 C 84 % 1023,6 hPa 0,0 mm 0,0 km/h (0 Bft) O-NO 67 10,9 C 0,0 km/h (0 Bft)
10.06.2015 22:00 13,6 C 13,7 C 85 % 1023,6 hPa 0,0 mm 0,0 km/h (0 Bft) O-SO 112 11,1 C 4,1 km/h (1 Bft)
10.06.2015 22:05 13,6 C 13,7 C 85 % 1023,6 hPa 0,0 mm 0,0 km/h (0 Bft) SO 135 11,1 C 0,0 km/h (0 Bft)
10.06.2015 22:10 13,6 C 13,6 C 86 % 1023,6 hPa 0,0 mm 0,3 km/h (0 Bft) S-SW 202 11,3 C 3,1 km/h (1 Bft)
10.06.2015 22:15 13,6 C 13,6 C 86 % 1023,6 hPa 0,0 mm 0,3 km/h (0 Bft) SO 135 11,3 C 0,0 km/h (0 Bft)
10.06.2015 22:20 13,6 C 13,6 C 86 % 1023,6 hPa 0,0 mm 0,3 km/h (0 Bft) SO 135 11,3 C 0,0 km/h (0 Bft)
10.06.2015 22:25 13,5 C 13,5 C 86 % 1023,6 hPa 0,0 mm 0,0 km/h (0 Bft) S-SO 157 11,2 C 0,0 km/h (0 Bft)
10.06.2015 22:30 13,5 C 13,5 C 86 % 1023,6 hPa 0,0 mm 0,0 km/h (0 Bft) O-SO 112 11,2 C 0,0 km/h (0 Bft)
10.06.2015 22:35 13,5 C 13,5 C 86 % 1023,4 hPa 0,0 mm 0,0 km/h (0 Bft) S-SO 157 11,2 C 0,0 km/h (0 Bft)
10.06.2015 22:40 13,5 C 13,5 C 86 % 1023,4 hPa 0,0 mm 0,0 km/h (0 Bft) SO 135 11,2 C 0,0 km/h (0 Bft)
10.06.2015 22:45 13,5 C 13,5 C 86 % 1023,4 hPa 0,0 mm 0,0 km/h (0 Bft) SO 135 11,2 C 0,0 km/h (0 Bft)
10.06.2015 22:50 13,4 C 13,5 C 85 % 1023,4 hPa 0,0 mm 0,0 km/h (0 Bft) S-SO 157 10,9 C 0,0 km/h (0 Bft)
10.06.2015 22:55 13,4 C 13,5 C 85 % 1023,3 hPa 0,0 mm 0,0 km/h (0 Bft) S 180 10,9 C 0,0 km/h (0 Bft)
10.06.2015 23:00 13,4 C 13,4 C 87 % 1023,3 hPa 0,0 mm 0,0 km/h (0 Bft) SO 135 11,3 C 0,0 km/h (0 Bft)
10.06.2015 23:05 13,4 C 13,4 C 87 % 1023,3 hPa 0,0 mm 0,0 km/h (0 Bft) O-NO 67 11,3 C 0,0 km/h (0 Bft)
10.06.2015 23:10 13,4 C 13,4 C 87 % 1023,3 hPa 0,0 mm 0,0 km/h (0 Bft) S-SO 157 11,3 C 0,0 km/h (0 Bft)
10.06.2015 23:15 13,4 C 13,4 C 87 % 1023,3 hPa 0,0 mm 0,0 km/h (0 Bft) SO 135 11,3 C 0,0 km/h (0 Bft)
10.06.2015 23:20 13,4 C 13,4 C 87 % 1023,3 hPa 0,0 mm 0,3 km/h (0 Bft) NW 315 11,3 C 0,0 km/h (0 Bft)
10.06.2015 23:25 13,4 C 13,4 C 87 % 1023,3 hPa 0,0 mm 0,0 km/h (0 Bft) S 180 11,3 C 0,0 km/h (0 Bft)
10.06.2015 23:30 13,3 C 13,4 C 85 % 1023,3 hPa 0,0 mm 0,0 km/h (0 Bft) O-SO 112 10,8 C 0,0 km/h (0 Bft)
10.06.2015 23:35 13,3 C 13,4 C 86 % 1023,3 hPa 0,0 mm 0,0 km/h (0 Bft) SO 135 11,0 C 0,0 km/h (0 Bft)
10.06.2015 23:40 13,3 C 13,4 C 86 % 1023,3 hPa 0,0 mm 0,0 km/h (0 Bft) O-NO 67 11,0 C 0,0 km/h (0 Bft)
10.06.2015 23:45 13,3 C 13,4 C 86 % 1023,3 hPa 0,0 mm 0,0 km/h (0 Bft) O 90 11,0 C 0,0 km/h (0 Bft)
10.06.2015 23:50 13,3 C 13,3 C 87 % 1023,3 hPa 0,0 mm 0,0 km/h (0 Bft) N-NO 22 11,2 C 0,0 km/h (0 Bft)
10.06.2015 23:55 13,3 C 13,3 C 87 % 1023,3 hPa 0,0 mm 0,0 km/h (0 Bft) N-NW 337 11,2 C 0,0 km/h (0 Bft)
_ Min-Zeit 03:00 02:25 18:45 05:30 - 23:55 - - 03:00 23:55
Minimum _ 10,6 C 10,5 C 79 % 1021,9 hPa - 0,0 km/h (0 Bft) - - 8,9 C 0,0 km/h (0 Bft)
_ Max-Zeit 18:05 14:50 06:35 00:10 08:00 12:25 - - 17:05 14:10
Maximum _ 15,9 C 17,8 C 94 % 1023,7 hPa 0,7 mm 9,1 km/h
SO (2 Bft)
- - 12,6 C 19,7 km/h
O-SO (3 Bft)
Durchschnitt _ 13,0 C 13,7 C 87 % 1022,7 hPa #0,7 mm 4,2 km/h (1 Bft) O-NO - 10,9 C 5,6 km/h (1 Bft)